NSS-11 1 26554U 00059A 26195.59394003 .00000015 00000+0 00000+0 0 9996 2 26554 2.1952 81.0628 0002831 38.0292 203.1731 1.00270872 41566 AMC-6 1 26580U 00067A 26195.54419973 .00000081 00000+0 00000+0 0 9996 2 26580 0.2198 83.6555 0003801 42.5881 227.0186 1.00270575 94168 AMC-15 1 28446U 04041A 26195.56298731 -.00000096 00000+0 00000+0 0 9991 2 28446 0.0279 317.2335 0002101 149.0709 283.7443 1.00270837 79579 NSS-10 1 28526U 05003A 26195.45878229 -.00000264 00000+0 00000+0 0 9990 2 28526 6.5158 70.1183 0002615 40.9580 308.9486 1.00270214 53429 ASTRA 1KR 1 29055U 06012A 26195.56283377 .00000110 00000+0 00000+0 0 9994 2 29055 0.5424 83.1730 0003286 22.5633 48.2982 1.00270087 45973 ASTRA 1L 1 31306U 07016A 26195.45878229 -.00000193 00000+0 00000+0 0 9997 2 31306 1.3900 81.3556 0005176 34.1907 317.4268 1.00271180 45256 ASTRA 4A 1 32299U 07057A 26195.55988709 .00000024 00000+0 00000+0 0 9992 2 32299 0.0424 284.7840 0002266 194.6484 19.3329 1.00271066 51929 ASTRA 1M 1 33436U 08057A 26195.56292044 .00000112 00000+0 00000+0 0 9996 2 33436 0.3646 82.7570 0004406 41.0886 30.6085 1.00269148 46014 NSS-9 1 33749U 09008A 26195.50808684 .00000063 00000+0 00000+0 0 9992 2 33749 1.3301 82.3868 0001850 20.6552 195.2946 1.00271683 63794 SES-7 (PROTOSTAR 2) 1 34941U 09027A 26195.29528286 -.00000351 00000+0 00000+0 0 9992 2 34941 0.0298 64.9521 0000555 168.5938 273.1405 1.00268610 62907 NSS-12 1 36032U 09058A 26195.59558377 .00000063 00000+0 00000+0 0 9995 2 36032 0.0948 269.4246 0004645 167.7886 126.6424 1.00273774 61195 SES-1 1 36516U 10016A 26195.53900032 -.00000122 00000+0 00000+0 0 9998 2 36516 0.0377 290.8449 0002371 180.9110 273.6749 1.00271624 59307 ASTRA 3B 1 36581U 10021A 26195.56370045 .00000128 00000+0 00000+0 0 9999 2 36581 1.5379 83.2250 0004422 20.4110 55.2191 1.00269867 59141 SES-3 1 37748U 11035A 26195.53865366 -.00000111 00000+0 00000+0 0 9996 2 37748 1.3951 82.7818 0001918 31.5414 269.0002 1.00271327 54866 ASTRA 1N 1 37775U 11041A 26195.56283377 .00000112 00000+0 00000+0 0 9992 2 37775 0.0607 7.5326 0005663 106.7690 39.9277 1.00270306 44808 SES-2 1 37809U 11049A 26195.54177367 -.00000203 00000+0 00000+0 0 9999 2 37809 0.1263 91.1279 0002695 22.7515 286.5543 1.00270361 54231 QUETZSAT 1 1 37826U 11054A 26195.54376701 -.00000249 00000+0 00000+0 0 9997 2 37826 0.0102 33.1578 0002562 89.4197 288.5918 1.00271266 50147 SES-4 1 38087U 12007A 26195.45322464 -.00000176 00000+0 00000+0 0 9992 2 38087 0.0196 63.4506 0002435 52.7854 317.2359 1.00269630 52490 SES-5 1 38652U 12036A 26195.06102681 .00000028 00000+0 00000+0 0 9991 2 38652 0.0474 318.3877 0001976 158.0260 202.4608 1.00271811 44723 ASTRA 2F 1 38778U 12051A 26195.56465378 .00000142 00000+0 00000+0 0 9994 2 38778 0.0915 256.4909 0002882 287.7506 339.6248 1.00268834 41417 SES-6 1 39172U 13026A 26194.83814566 -.00000267 00000+0 00000+0 0 9991 2 39172 0.0272 324.6493 0002141 148.6357 79.6458 1.00264955 47998 O3B FM5 1 39188U 13031A 26195.42498340 -.00000022 00000+0 00000+0 0 9997 2 39188 0.0951 335.5300 0002817 122.8969 261.6018 5.00115590238407 O3B FM4 1 39189U 13031B 26195.34453472 -.00000022 00000+0 00000+0 0 9996 2 39189 0.0405 347.3246 0004914 109.5705 263.1577 5.00115573238400 O3B FM2 1 39190U 13031C 26195.21011533 -.00000022 00000+0 00000+0 0 9992 2 39190 0.0350 344.1132 0002718 124.5457 251.3674 5.00116035238468 O3B PFM 1 39191U 13031D 26195.42412588 -.00000022 00000+0 00000+0 0 9991 2 39191 0.0669 346.6883 0005269 117.4850 255.8821 5.00116019238032 ASTRA 2E 1 39285U 13056A 26195.56465378 .00000142 00000+0 00000+0 0 9994 2 39285 0.0776 312.4447 0002655 154.8307 56.9083 1.00268726 46698 SES-8 1 39460U 13071A 26195.57782942 -.00000277 00000+0 00000+0 0 9996 2 39460 0.0585 258.5578 0002609 216.2134 120.6771 1.00270306 44706 ASTRA 5B 1 39617U 14011B 26195.56370045 .00000129 00000+0 00000+0 0 9996 2 39617 0.0784 301.1954 0001823 179.3981 38.2496 1.00267544 44944 O3B FM3 1 40079U 14038A 26195.49081621 -.00000022 00000+0 00000+0 0 9993 2 40079 0.0477 352.7501 0002675 173.6183 193.6355 5.00115714214410 O3B FM7 1 40080U 14038B 26195.23705019 -.00000022 00000+0 00000+0 0 9991 2 40080 0.0452 344.0503 0003592 97.1384 278.8488 5.00115625219232 O3B FM6 1 40081U 14038C 26195.46391343 -.00000022 00000+0 00000+0 0 9998 2 40081 0.0463 349.8095 0002607 122.8948 247.3200 5.00115691219182 O3B FM8 1 40082U 14038D 26195.31725853 -.00000022 00000+0 00000+0 0 9990 2 40082 0.0459 348.5320 0002745 123.5675 247.9264 5.00116063219307 O3B FM10 1 40348U 14083A 26190.34727304 -.00000010 00000+0 00000+0 0 9993 2 40348 0.0415 347.0289 0004898 105.1910 267.8366 5.00115429211009 O3B FM11 1 40349U 14083B 26195.35716395 -.00000022 00000+0 00000+0 0 9991 2 40349 0.0552 351.3837 0002537 104.4691 264.1728 5.00115514211271 O3B FM12 1 40350U 14083C 26195.38415400 -.00000022 00000+0 00000+0 0 9999 2 40350 0.0542 351.6859 0002496 117.8502 250.4876 5.00115955211284 O3B FM9 1 40351U 14083D 26195.41098110 -.00000022 00000+0 00000+0 0 9999 2 40351 0.0560 350.5179 0002675 120.2240 249.2836 5.00115984211435 ASTRA 2G 1 40364U 14089A 26195.56465378 .00000142 00000+0 00000+0 0 9991 2 40364 0.0513 25.1713 0004484 48.8718 89.8620 1.00267841 42247 SES-9 1 41380U 16013A 26195.29536953 -.00000352 00000+0 00000+0 0 9991 2 41380 0.0167 331.5751 0002018 134.4024 40.8176 1.00270498 37711 SES-10 1 42432U 17017A 26195.54576036 -.00000280 00000+0 00000+0 0 9999 2 42432 0.0170 44.2170 0002539 74.1564 303.5978 1.00268501 34026 SES-15 1 42709U 17026A 26195.53345363 .00000052 00000+0 00000+0 0 9998 2 42709 0.0267 329.1758 0000254 130.8244 255.2714 1.00268490 7707 SES-11 (ECHOSTAR 105) 1 42967U 17063A 26195.53822032 -.00000097 00000+0 00000+0 0 9998 2 42967 0.0393 296.8298 0002643 165.9953 278.3755 1.00271003 31995 SES-14 1 43175U 18012B 26195.19321600 -.00000285 00000+0 00000+0 0 9991 2 43175 0.0126 28.6879 0000801 93.5684 191.8510 1.00270728 7295 O3B FM15 1 43231U 18024A 26195.27790812 -.00000022 00000+0 00000+0 0 9990 2 43231 0.0528 359.7636 0002597 111.9769 248.2841 5.00115758152386 O3B FM16 1 43232U 18024B 26195.53012085 -.00000022 00000+0 00000+0 0 9999 2 43232 0.0532 4.1652 0002622 105.8977 249.9620 5.00115953152305 O3B FM14 1 43233U 18024C 26195.37104686 -.00000022 00000+0 00000+0 0 9991 2 43233 0.0521 5.3362 0002875 106.3087 248.3825 5.00115733152310 O3B FM13 1 43234U 18024D 26195.03714792 -.00000021 00000+0 00000+0 0 9999 2 43234 0.0512 324.1210 0002240 92.9111 302.9864 5.00115384152401 SES-12 1 43488U 18049A 26195.60007625 -.00000277 00000+0 00000+0 0 9993 2 43488 0.0108 12.2329 0000832 240.7361 350.5137 1.00269527 29695 O3B FM20 1 44112U 19020A 26195.39711194 -.00000022 00000+0 00000+0 0 9995 2 44112 0.0526 356.0140 0002357 109.3112 254.6976 5.00115580132921 O3B FM19 1 44113U 19020B 26194.02488125 -.00000019 00000+0 00000+0 0 9996 2 44113 0.0736 333.8772 0003731 117.5290 268.6344 5.00116218132736 O3B FM17 1 44114U 19020C 26195.30440695 -.00000022 00000+0 00000+0 0 9993 2 44114 0.0366 11.3757 0002572 99.7765 248.8721 5.00115613132880 O3B FM18 1 44115U 19020D 26195.25075017 -.00000022 00000+0 00000+0 0 9990 2 44115 0.0530 355.9155 0002742 116.7861 247.3242 5.00115325133006 SES-17 1 49332U 21095A 26195.54576036 -.00000280 00000+0 00000+0 0 9996 2 49332 0.0239 47.9287 0000766 70.4463 303.3950 1.00268865 18128 SES-22 1 52933U 22071A 26195.53154696 .00000097 00000+0 00000+0 0 9990 2 52933 0.0101 46.4781 0000798 60.4037 237.8400 1.00271235 7798 SES-20 1 53960U 22123A 26195.53865366 -.00000108 00000+0 00000+0 0 9996 2 53960 0.0169 65.0325 0001753 26.8663 291.3105 1.00269138 13802 SES-21 1 53961U 22123B 26195.03409626 .00000000 00000+0 00000+0 0 9995 2 53961 0.0398 36.9714 0001181 72.5492 63.7350 1.00270261 7488 O3B MPOWER F1 1 54755U 22174A 26195.44247847 -.00000022 00000+0 00000+0 0 9998 2 54755 0.0493 339.4384 0006630 144.4695 81.2769 5.00114755 66728 O3B MPOWER F2 1 54756U 22174B 26195.49518504 -.00000022 00000+0 00000+0 0 9995 2 54756 0.0452 339.8098 0005789 127.8924 252.3577 5.00114913 66818 SES-18 1 55970U 23038A 26195.53865366 -.00000109 00000+0 00000+0 0 9996 2 55970 0.0546 256.8579 0000840 312.2596 174.1066 1.00271593 12371 SES-19 1 55971U 23038B 26195.53232696 .00000080 00000+0 00000+0 0 9998 2 55971 0.0113 344.3455 0001483 129.3634 235.4140 1.00268994 12366 O3B MPOWER F4 1 56367U 23059A 26195.35952461 -.00000022 00000+0 00000+0 0 9997 2 56367 0.0629 350.0646 0007729 126.2127 243.7991 5.00115365 59966 O3B MPOWER F3 1 56368U 23059B 26195.39265828 -.00000022 00000+0 00000+0 0 9996 2 56368 0.0636 349.3711 0006672 120.2331 250.4647 5.00116392 56091 O3B MPOWER F5 1 58346U 23175A 26195.49365393 -.00000022 00000+0 00000+0 0 9992 2 58346 0.0522 9.2118 0005495 121.8914 228.9410 5.00115862 50804 O3B MPOWER F6 1 58347U 23175B 26195.39424088 -.00000022 00000+0 00000+0 0 9999 2 58347 0.0540 0.8937 0004432 110.6350 248.5152 5.00115715 49717 ASTRA 1P (SES-24) 1 60086U 24115A 26194.35091053 .00000118 00000+0 00000+0 0 9999 2 60086 0.0666 329.5187 0001497 236.9138 230.3347 1.00281209 7460 O3B MPOWER F7 1 62362U 24244A 26195.46064111 -.00000022 00000+0 00000+0 0 9994 2 62362 0.0660 342.9568 0005927 125.9539 251.1502 5.00115289 27889 O3B MPOWER F8 1 62363U 24244B 26195.42759117 -.00000022 00000+0 00000+0 0 9998 2 62363 0.0144 3.2807 0005761 98.3276 258.4531 5.00114973 22232 O3B MPOWER F9 1 64866U 25153A 26195.36097272 -.00000022 00000+0 00000+0 0 9998 2 64866 0.0612 5.6759 0006721 125.5883 228.7906 5.00115667 20929 O3B MPOWER F10 1 64867U 25153B 26195.32702434 -.00000022 00000+0 00000+0 0 9998 2 64867 0.0584 2.2677 0002457 244.9940 112.7090 5.00114865 23380